Probability
0 0 0 0 0 0 0 0 0 0 0 0 0 0 0 0 0 0 0 0 0 0 0 0 0 0 0 0 0 0 0 0 0 0 0 0 0 0 0 0 0 0 3 3
0 0 0 0 0 0 0 0 0 0 0 0 0 0 0 0 0 0 0 0 0 0 0 0 0 0 0 0 0 0 0 0 0 0 0 0 0 0 0 0 0 0 3 3
0 0 0 0 0 0 0 0 0 0 0 0 0 0 0 0 0 0 0 0 0 0 0 0 0 0 0 0 0 0 0 0 0 0 0 0 0 0 0 0 0 0 3 3
0 0 0 0 0 0 0 0 0 0 0 0 0 0 0 0 0 0 0 0 0 0 0 0 0 0 0 0 0 0 0 0 0 0 0 0 0 0 0 0 0 0 0 3
0 0 0 0 0 0 0 0 0 0 0 0 0 0 0 0 0 0 0 0 3 3 3 3 0 0 0 0 0 0 0 0 0 0 0 0 0 0 0 0 0 0 0 3
0 0 0 0 0 0 0 0 0 0 0 0 0 0 0 0 0 0 0 0 3 3 3 3 3 3 0 0 0 0 0 0 0 0 0 0 0 0 0 0 0 0 0 0
0 0 0 0 0 0 0 0 0 0 0 0 0 0 0 0 0 0 0 0 0 3 3 3 0 0 0 0 0 0 0 0 0 0 0 0 0 0 0 0 0 0 0 0
0 0 0 0 0 0 0 0 0 0 0 0 0 0 0 0 0 0 0 0 0 0 3 3 0 0 0 0 0 0 0 0 0 0 0 0 0 0 0 0 0 0 0 0
0 0 0 0 0 0 0 0 0 0 0 0 0 0 0 0 0 0 0 0 3 3 3 0 0 0 0 0 0 0 0 0 0 0 0 0 0 0 0 0 0 0 0 0
0 0 0 0 0 0 0 0 0 0 0 0 0 0 0 0 0 0 0 0 0 6 0 0 0 0 0 0 0 0 0 0 0 0 0 0 0 0 0 0 0 0 0 0
0 0 0 0 0 0 0 0 0 0 0 0 0 0 0 0 0 0 0 0 0 3 0 0 0 0 0 0 0 0 0 0 0 0 0 0 0 0 0 0 0 0 0 0
0 0 0 0 0 0 0 0 0 0 0 0 0 0 0 0 0 0 0 0 0 0 0 3 3 0 0 0 0 0 0 0 0 0 0 0 0 0 0 0 0 0 0 0
0 0 0 0 0 0 0 0 0 0 0 0 0 0 0 0 0 0 0 0 3 0 0 0 0 3 0 0 0 0 0 0 0 0 0 0 0 0 0 0 0 0 0 0
0 0 0 0 0 0 0 0 0 0 0 0 0 0 0 0 0 0 0 0 0 0 0 0 0 0 3 0 0 0 0 0 0 0 0 0 0 0 0 0 0 0 0 0
0 0 0 0 0 0 0 0 0 0 0 0 0 0 0 0 0 0 0 0 3 3 0 0 0 0 3 0 0 0 0 0 0 0 0 0 0 0 0 0 0 0 0 0
0 0 0 0 0 0 0 0 0 0 0 0 0 0 0 0 0 0 0 0 3 3 0 3 0 0 0 3 0 0 0 0 0 0 0 0 0 0 0 0 0 0 0 0
0 0 0 0 0 0 0 0 0 0 0 0 0 0 0 0 0 0 0 3 6 3 0 0 3 0 0 0 0 0 0 0 0 0 0 0 0 0 0 0 0 0 0 0
0 0 0 0 0 0 0 0 0 0 0 0 0 0 0 0 0 0 3 6 6 3 0 0 0 0 0 0 0 3 3 0 0 0 0 0 0 0 0 0 0 0 0 0
0 0 0 0 0 0 0 0 0 0 0 0 0 0 0 0 0 0 0 3 6 6 3 0 0 0 0 0 3 3 0 0 0 0 0 0 0 0 0 0 0 0 0 0
0 0 0 0 0 0 0 0 0 0 0 0 0 0 0 0 0 0 0 3 3 6 6 3 0 0 0 0 3 0 0 0 0 0 0 0 0 0 0 0 0 0 0 0
0 0 0 0 0 0 0 0 0 0 0 0 0 0 0 0 0 0 0 0 6 10 10 3 3 3 0 3 3 3 0 0 0 0 0 0 0 0 0 0 0 0 0 0
0 0 0 0 0 0 0 0 0 0 0 0 0 0 0 0 0 0 0 3 3 6 6 6 10 3 0 0 0 3 3 0 0 0 0 3 3 0 0 0 0 0 0 0
0 0 0 0 0 0 0 0 0 0 0 0 0 0 0 0 0 0 0 3 3 3 6 6 10 6 0 3 0 0 0 0 3 6 6 6 6 6 0 6 3 3 0 0
0 0 0 0 0 0 0 0 0 0 0 0 0 0 0 0 0 3 0 0 6 6 6 10 13 6 6 6 3 0 0 0 3 6 6 6 6 6 3 3 3 3 0 0
0 0 0 0 0 0 0 0 0 0 0 0 0 0 0 0 3 3 0 0 6 10 10 6 10 10 6 3 0 0 0 0 3 3 6 6 6 3 3 3 3 3 0 0
0 0 0 0 0 0 0 0 0 0 0 0 0 0 0 0 3 3 3 3 6 6 10 6 10 10 3 3 0 0 0 0 0 3 3 6 3 3 3 3 3 0 0 0
Height
5850 5852 5852 5853 5854 5854 5855 5855 5855 5856 5856 5857 5857 5857 5857 5858 5858 5859 5860 5861 5862 5863 5865 5866 5867 5868 5870 5871 5872 5874 5876 5877 5878 5879 5879 5880 5880 5879 5879 5878 5876 5875 5873 5872
5848 5849 5850 5850 5851 5852 5853 5853 5853 5854 5854 5855 5855 5855 5856 5856 5857 5858 5859 5859 5860 5862 5864 5865 5866 5868 5869 5870 5872 5874 5875 5877 5878 5879 5880 5880 5880 5880 5879 5879 5877 5876 5875 5873
5844 5846 5847 5848 5849 5850 5851 5851 5852 5852 5852 5853 5854 5854 5854 5855 5855 5856 5857 5858 5859 5861 5862 5864 5865 5866 5868 5870 5871 5873 5875 5877 5878 5879 5880 5880 5880 5880 5880 5879 5879 5878 5876 5875
5841 5843 5844 5845 5846 5847 5848 5849 5849 5849 5850 5851 5852 5852 5852 5853 5854 5855 5856 5857 5858 5859 5861 5862 5864 5865 5867 5869 5871 5873 5874 5876 5878 5879 5880 5880 5881 5881 5881 5880 5880 5879 5878 5876
5838 5840 5841 5842 5844 5845 5845 5846 5847 5848 5848 5849 5849 5850 5851 5851 5852 5853 5854 5855 5856 5858 5859 5861 5862 5864 5866 5868 5870 5872 5874 5876 5877 5879 5880 5880 5881 5881 5881 5881 5881 5880 5879 5878
5835 5837 5838 5839 5841 5842 5843 5844 5845 5845 5846 5847 5848 5848 5848 5849 5849 5851 5852 5853 5854 5856 5858 5859 5861 5863 5865 5867 5869 5871 5873 5875 5877 5878 5879 5880 5881 5881 5882 5882 5881 5881 5880 5880
5832 5833 5834 5836 5838 5839 5840 5842 5843 5843 5844 5845 5845 5846 5847 5847 5847 5849 5850 5851 5852 5854 5856 5858 5860 5862 5864 5866 5868 5870 5872 5874 5876 5878 5879 5880 5881 5882 5882 5882 5882 5882 5882 5881
5828 5830 5831 5833 5835 5836 5837 5839 5841 5842 5843 5843 5843 5843 5845 5845 5846 5846 5847 5849 5850 5852 5854 5856 5858 5860 5862 5864 5867 5869 5871 5873 5875 5877 5878 5880 5881 5881 5882 5882 5883 5883 5882 5882
5825 5826 5828 5829 5831 5833 5834 5836 5838 5839 5840 5841 5841 5841 5841 5842 5843 5844 5845 5847 5848 5850 5852 5854 5856 5858 5861 5863 5865 5867 5870 5872 5874 5876 5877 5879 5880 5881 5882 5882 5883 5883 5883 5883
5820 5822 5824 5826 5828 5829 5831 5833 5834 5836 5837 5838 5839 5839 5840 5840 5841 5842 5843 5844 5846 5848 5850 5852 5854 5856 5859 5861 5863 5866 5868 5870 5872 5874 5876 5878 5879 5881 5881 5882 5883 5883 5883 5884
5817 5819 5821 5822 5824 5826 5828 5830 5831 5832 5834 5836 5837 5839 5837 5838 5839 5840 5841 5842 5844 5846 5848 5850 5852 5854 5856 5859 5861 5864 5866 5868 5870 5873 5875 5877 5878 5880 5881 5882 5883 5883 5884 5884
5812 5815 5816 5819 5821 5822 5824 5826 5828 5830 5831 5832 5834 5837 5834 5835 5836 5838 5839 5840 5842 5844 5846 5848 5850 5851 5854 5857 5859 5862 5864 5866 5868 5871 5873 5875 5877 5878 5880 5881 5882 5883 5883 5884
5808 5811 5812 5815 5819 5819 5820 5822 5824 5826 5828 5829 5831 5834 5831 5832 5834 5835 5836 5838 5839 5841 5843 5845 5847 5849 5851 5854 5857 5859 5861 5864 5866 5868 5871 5873 5875 5877 5878 5880 5881 5882 5883 5883
5804 5806 5809 5811 5813 5815 5816 5818 5820 5822 5824 5826 5827 5828 5829 5829 5831 5832 5833 5835 5836 5838 5840 5842 5844 5846 5848 5851 5854 5856 5858 5861 5864 5866 5868 5870 5873 5874 5876 5878 5879 5881 5882 5883
5799 5802 5804 5806 5808 5810 5812 5814 5816 5818 5820 5822 5824 5824 5825 5827 5828 5829 5830 5831 5833 5835 5837 5838 5841 5843 5845 5848 5850 5853 5855 5858 5861 5863 5865 5868 5870 5872 5874 5876 5877 5879 5880 5881
5794 5797 5799 5802 5804 5806 5808 5811 5813 5815 5817 5818 5820 5821 5822 5823 5824 5825 5827 5828 5829 5831 5833 5835 5837 5839 5841 5844 5847 5849 5852 5854 5857 5860 5862 5864 5866 5868 5871 5873 5875 5876 5878 5879
5788 5792 5795 5798 5800 5801 5805 5808 5809 5811 5813 5815 5816 5819 5819 5820 5821 5822 5823 5824 5826 5827 5829 5831 5833 5835 5838 5840 5843 5846 5848 5850 5853 5856 5858 5860 5862 5865 5867 5869 5871 5873 5875 5877
5784 5787 5790 5793 5796 5798 5803 5803 5805 5807 5809 5811 5812 5814 5814 5816 5817 5818 5820 5821 5822 5823 5825 5827 5829 5832 5834 5836 5839 5841 5844 5847 5849 5852 5854 5857 5859 5861 5863 5866 5868 5870 5872 5874
5779 5782 5785 5788 5791 5794 5798 5799 5801 5803 5805 5807 5808 5809 5810 5811 5813 5814 5816 5817 5818 5820 5821 5823 5826 5828 5830 5832 5835 5837 5840 5843 5845 5848 5851 5853 5855 5858 5860 5862 5865 5867 5869 5870
5773 5777 5781 5783 5786 5789 5794 5795 5797 5800 5801 5802 5803 5805 5806 5807 5809 5811 5811 5813 5814 5816 5817 5819 5822 5824 5826 5828 5831 5833 5836 5838 5841 5844 5846 5849 5851 5854 5856 5859 5861 5863 5865 5866
5768 5771 5775 5778 5781 5785 5789 5790 5793 5796 5797 5798 5799 5800 5802 5803 5805 5806 5807 5808 5810 5812 5813 5815 5818 5820 5822 5825 5827 5829 5832 5835 5837 5840 5842 5844 5847 5849 5852 5854 5857 5859 5861 5862
5763 5767 5770 5773 5777 5782 5783 5786 5789 5791 5791 5793 5795 5796 5798 5799 5800 5801 5803 5804 5806 5807 5809 5811 5813 5816 5818 5821 5823 5825 5828 5830 5833 5835 5838 5840 5843 5845 5848 5850 5852 5854 5856 5858
5757 5762 5766 5769 5774 5776 5778 5781 5783 5785 5787 5788 5790 5792 5793 5795 5796 5797 5799 5800 5802 5803 5805 5807 5809 5812 5814 5816 5819 5821 5824 5826 5828 5831 5833 5836 5838 5841 5843 5845 5848 5850 5852 5853
5752 5756 5760 5764 5767 5770 5773 5776 5779 5781 5782 5784 5786 5787 5789 5790 5792 5793 5795 5796 5798 5799 5801 5803 5805 5807 5810 5812 5815 5817 5819 5822 5824 5827 5829 5831 5834 5836 5839 5841 5843 5845 5847 5848
5746 5750 5754 5758 5762 5765 5768 5771 5773 5775 5777 5779 5781 5783 5785 5786 5788 5789 5791 5792 5794 5795 5797 5798 5800 5803 5805 5808 5810 5812 5815 5817 5820 5822 5824 5827 5829 5831 5834 5835 5837 5839 5841 5842
5740 5745 5749 5752 5756 5759 5763 5766 5768 5771 5773 5775 5777 5779 5780 5782 5783 5785 5786 5788 5789 5791 5793 5795 5797 5799 5801 5804 5806 5808 5810 5813 5815 5817 5820 5822 5824 5826 5828 5830 5832 5833 5835 5836
Wind_Speed
12 13 12 12 12 11 11 11 12 12 11 11 10 10 11 11 11 10 9 9 9 9 9 8 8 8 7 7 7 7 7 6 4 3 2 2 3 4 5 6 7 8 9 9
14 14 12 12 12 12 12 12 12 12 11 11 11 11 11 11 11 11 10 10 9 9 9 9 9 9 8 7 7 7 7 6 5 3 2 2 2 3 5 6 7 7 8 8
15 14 13 13 13 12 12 12 12 12 12 12 12 12 12 11 10 10 10 9 9 9 9 9 10 9 9 9 8 8 7 7 5 4 3 1 2 2 4 5 6 7 8 8
16 14 14 14 14 13 13 12 12 12 12 12 12 12 12 11 11 11 10 10 10 10 10 10 10 9 9 9 8 7 8 8 6 5 3 2 1 1 3 4 5 6 7 7
17 15 15 15 14 14 14 13 13 12 12 13 13 13 13 12 12 12 11 11 11 10 11 11 10 11 10 9 9 8 8 8 7 5 4 3 1 1 2 3 4 5 6 6
17 16 15 15 15 14 14 13 12 13 13 13 13 13 14 14 12 12 11 12 12 12 11 12 11 11 11 11 10 9 9 9 7 6 5 4 2 2 1 2 3 4 4 5
18 16 16 15 15 15 14 13 12 12 11 11 13 14 15 13 12 12 13 13 13 13 12 13 12 12 12 11 11 10 9 9 8 7 6 5 4 2 2 1 2 3 4 4
18 17 16 15 15 15 14 14 13 10 9 10 13 14 15 14 13 13 13 13 13 13 12 12 13 13 13 12 12 12 10 10 10 8 7 6 5 4 3 2 1 2 2 3
18 18 16 16 16 16 15 15 14 13 12 11 12 14 14 13 13 12 12 13 13 13 13 12 13 14 14 14 14 13 12 11 10 9 8 7 6 5 3 2 1 1 1 2
20 19 17 16 17 17 16 15 15 15 14 13 12 12 14 13 12 12 12 13 14 14 13 13 13 14 15 15 15 14 13 12 11 11 10 8 7 6 4 3 2 1 1 0
20 20 19 17 17 17 16 16 16 16 15 14 12 13 14 13 12 12 13 13 14 14 14 13 14 15 16 16 16 15 14 14 13 12 11 10 8 7 6 5 3 2 1 1
21 21 20 18 17 17 17 17 17 17 16 15 15 15 14 12 12 12 13 14 14 15 14 14 13 14 16 16 16 16 15 15 14 13 12 11 10 9 8 7 6 4 3 2
22 21 21 19 18 18 17 17 17 17 17 16 16 15 15 13 13 13 13 13 14 15 15 15 15 15 16 17 17 17 16 15 15 15 13 12 12 11 10 8 7 6 5 4
23 22 21 20 18 18 17 17 17 18 18 17 16 16 15 14 14 14 14 14 14 15 16 16 16 16 17 17 17 17 16 16 16 16 14 13 12 12 11 10 9 8 7 6
24 23 22 22 20 18 18 18 17 18 17 17 16 17 17 16 15 15 15 15 15 15 16 17 17 17 18 18 18 18 18 17 17 17 16 15 14 14 13 12 11 10 9 8
25 24 23 23 21 20 19 18 17 17 18 18 18 17 17 16 17 16 16 16 16 16 16 16 17 17 18 18 18 18 18 19 19 18 18 16 16 15 15 14 13 12 11 10
26 25 24 23 22 21 20 17 17 18 18 18 18 18 18 18 18 17 16 16 16 16 16 16 17 17 17 17 18 19 20 19 19 19 19 18 17 16 16 16 15 14 13 12
26 26 24 23 22 22 18 18 18 19 19 19 18 19 19 19 19 18 17 17 17 17 16 17 17 16 16 17 18 19 20 20 20 20 20 19 18 17 17 17 16 15 14 14
27 26 25 24 23 21 19 18 18 18 17 18 19 18 19 19 19 17 17 17 18 18 17 17 17 17 17 17 18 18 19 20 20 20 20 20 19 18 18 17 17 16 16 15
26 26 26 25 23 22 19 18 17 17 17 18 18 18 18 19 18 17 17 18 18 18 17 17 17 17 17 17 17 18 18 18 19 20 20 19 19 19 18 18 18 17 16 16
27 26 26 25 24 23 20 19 18 17 17 17 17 17 17 18 18 18 18 18 17 17 17 17 18 18 17 17 18 18 19 19 19 19 19 19 19 19 19 19 19 18 17 17
27 26 25 25 25 23 21 20 18 17 18 18 17 17 16 17 17 18 17 17 16 16 17 18 18 18 18 18 19 19 19 20 20 20 20 19 19 19 19 19 19 19 19 18
28 27 25 25 24 23 22 20 19 18 19 19 18 17 17 17 17 17 16 16 16 16 17 17 18 18 19 18 18 19 19 19 19 19 19 20 19 19 19 20 19 19 20 19
28 28 27 27 25 24 23 21 21 20 20 19 18 17 17 17 17 16 16 16 16 17 17 17 17 18 18 18 18 19 19 19 18 19 19 20 20 20 20 20 19 20 20 21
30 29 28 28 26 26 24 23 22 21 21 19 19 19 17 17 17 17 16 16 16 16 16 17 17 17 18 18 19 19 19 18 19 20 19 18 20 21 21 21 20 20 21 21
30 30 29 28 27 27 26 24 23 22 21 19 18 18 17 16 16 16 15 15 15 15 15 16 16 17 18 18 19 19 19 19 19 20 20 19 20 20 21 21 21 21 21 22
Wind_Direction
249 250 253 255 255 257 263 266 270 274 274 275 273 270 269 271 269 260 258 258 259 249 245 237 223 224 224 220 209 199 195 190 183 160 136 99 58 37 32 29 27 29 31 35
248 250 252 254 254 254 258 261 266 273 271 271 268 268 272 270 260 256 256 255 253 248 245 237 221 222 217 211 207 198 192 186 174 161 142 103 66 42 35 31 32 33 36 40
247 251 251 250 250 252 256 259 264 266 267 266 267 267 268 264 260 255 250 252 254 248 238 233 223 221 216 210 206 195 190 187 176 171 164 128 79 52 43 37 38 39 41 44
248 249 248 249 249 253 255 255 256 262 263 264 264 267 263 264 261 255 249 250 250 250 236 232 225 219 214 206 204 197 194 192 187 183 178 163 116 71 52 44 44 43 44 48
247 247 246 247 248 250 253 252 253 259 260 262 262 264 264 263 260 254 247 247 248 248 239 232 224 218 213 207 205 205 201 195 191 190 187 179 168 122 74 56 52 49 48 52
247 246 246 245 245 247 251 253 253 256 259 261 260 263 261 261 257 257 250 246 245 245 238 231 226 219 215 210 208 206 205 199 197 199 197 190 184 167 124 70 54 53 52 54
246 245 244 245 245 244 246 248 252 257 261 264 263 265 262 262 259 259 254 248 244 241 240 236 226 220 215 214 210 207 209 204 201 203 206 203 196 187 180 132 69 61 61 61
245 244 244 242 243 242 242 243 244 245 254 265 266 267 265 265 262 258 252 245 239 236 239 235 230 223 218 215 211 209 211 209 209 209 212 214 209 204 198 176 116 76 73 74
242 243 243 241 240 241 240 239 239 236 239 245 258 267 268 262 260 255 250 242 235 233 235 235 228 224 222 217 214 212 214 213 212 213 215 216 214 213 207 199 181 122 88 77
239 244 243 241 239 239 240 238 235 236 241 240 246 259 267 268 261 256 252 243 233 233 233 230 226 224 225 223 219 216 215 214 215 217 216 217 217 218 215 212 205 193 157 90
238 242 243 241 238 238 238 238 237 238 241 244 242 252 259 266 265 259 253 245 236 231 232 232 230 229 226 225 221 219 221 220 219 217 216 219 221 223 221 221 219 215 218 222
235 240 242 240 237 237 237 236 237 238 238 241 241 249 257 259 262 260 257 250 241 232 232 233 234 229 226 223 223 222 225 223 221 218 217 222 225 225 226 229 229 226 226 226
231 235 238 239 237 236 237 236 237 238 239 241 241 247 255 255 260 258 256 251 244 236 233 232 234 233 229 226 226 226 226 223 221 220 220 223 226 228 230 231 230 230 231 231
229 232 234 237 239 239 238 237 237 238 239 241 243 244 251 257 261 260 256 254 250 240 234 232 234 235 231 226 225 226 226 226 224 223 223 225 228 230 232 233 231 231 234 237
230 232 233 233 236 239 239 237 238 238 238 241 242 244 249 252 257 260 259 256 253 245 238 235 234 234 231 228 226 227 227 227 226 227 228 230 232 233 235 234 234 234 237 241
229 232 233 232 234 237 240 237 236 238 237 238 242 246 252 255 259 258 256 255 252 247 242 237 235 234 233 231 229 230 229 227 227 230 233 234 235 236 237 234 235 237 239 241
228 231 232 233 234 238 239 237 240 240 238 240 243 247 249 251 255 255 254 253 250 247 244 240 237 236 236 234 233 233 233 229 228 232 234 236 236 236 234 234 236 238 240 242
229 230 231 232 235 238 237 238 241 241 241 243 244 246 249 253 255 254 253 250 247 246 245 242 239 238 237 236 235 235 236 234 233 233 235 235 234 233 233 234 236 239 241 241
229 230 231 232 234 237 235 238 242 244 245 246 247 248 250 254 254 252 252 250 247 244 242 241 239 238 236 235 235 235 236 235 232 234 235 235 234 234 237 237 237 240 241 243
227 229 231 232 233 237 236 238 242 245 248 246 245 247 250 252 251 249 248 248 246 243 240 239 239 239 237 236 236 237 237 235 233 235 234 234 235 234 236 237 237 239 241 242
225 227 230 232 235 238 238 238 239 245 250 248 247 248 250 252 252 251 251 249 246 244 242 239 238 238 237 237 237 238 238 236 234 232 232 234 234 234 237 238 239 238 240 244
224 227 228 230 233 235 237 236 237 242 248 251 249 249 251 251 250 252 250 249 246 244 243 240 234 234 235 237 238 239 239 237 234 233 232 232 232 234 237 238 241 240 241 244
224 225 228 230 232 233 236 239 240 243 247 249 250 251 251 250 250 250 248 247 243 242 241 240 236 234 234 235 237 238 239 239 237 235 231 232 233 235 238 240 242 243 244 247
223 223 226 228 230 233 237 239 240 243 247 248 247 248 251 250 249 248 248 246 245 243 239 238 236 234 233 234 236 237 238 237 236 234 233 235 236 238 240 241 245 247 247 250
225 225 226 229 231 232 233 236 239 240 243 244 243 246 249 250 249 247 247 248 248 246 241 237 235 233 234 235 235 236 236 236 236 235 235 238 240 242 244 245 247 250 251 252
224 226 226 229 231 232 233 236 239 240 242 242 242 244 246 246 245 244 243 243 244 245 241 237 234 232 233 234 236 236 237 238 239 240 239 240 244 244 245 246 248 251 252 253